Location: Newark
(35.2672°N, 80.7344°W)
Time: 14:40:32
(UTC+00:00)

A-11 Canister half - Pass Details

Date: 02 February 2020
Orbit: 1524 x 1684 km, 47.3° (Epoch: 28 February)

Event Time Altitude Azimuth Distance (km) Brightness Sun altitude
Rises 01:52:23 0° 302° (WNW) 4,707 12.3 -37.2°
Reaches altitude 10° 01:55:30 10° 306° (NW) 3,738 11.6 -37.9°
Enters shadow 02:03:13 53° 350° (N) 1,875 9.3 -39.4°
